Location: Starry Hill Observatory
(46.8582°N, 122.3590°W)
Time: 14:25:15
(UTC-08:00)

ISS - Visible Passes

Search period start: 23 November 2017 00:00
Search period end: 03 December 2017 00:00
Orbit: 402 x 407 km, 51.6° (Epoch: 24 November)

Date Brightness Start Highest point End Pass type
(mag) Time Alt. Az. Time Alt. Az. Time Alt. Az.
26 Nov -1.3 18:40:20 10° SSW 18:41:08 15° S 18:41:08 15° S visible
27 Nov -1.7 17:49:01 10° S 17:50:56 15° SE 17:51:11 15° SE visible
27 Nov -0.4 19:23:41 10° WSW 19:23:51 11° WSW 19:23:51 11° WSW visible
28 Nov -2.7 18:31:28 10° SW 18:33:49 38° SSW 18:33:49 38° SSW visible
29 Nov -2.6 17:39:30 10° SSW 17:42:24 29° SE 17:43:42 22° E visible
29 Nov -0.8 19:15:29 10° W 19:16:21 17° W 19:16:21 17° W visible
30 Nov -3.8 18:23:01 10° WSW 18:26:10 80° W 18:26:10 80° W visible
01 Dec -3.6 17:30:41 10° SW 17:33:56 60° SSE 17:35:55 21° ENE visible
01 Dec -1.1 19:07:24 10° W 19:08:34 19° WNW 19:08:34 19° WNW visible
02 Dec -3.5 18:14:47 10° W 18:18:00 52° NNW 18:18:16 50° N visible
